Regional Weather Roundup
Issued by NWS

Home | Current Version | Previous Version | Graphics & Text | Print | Product List | Glossary On
Versions: 1 2 3 4 5 6 7 8 9 10 11 12 13 14 15 16 17 18 19 20 21 22 23 24 25 26 27 28 29 30 31 32 33 34 35 36 37 38 39 40 41 42 43 44 45 46 47 48 49 50
000
ASUS44 KMEG 192100
RWRTN
TENNESSEE HOURLY STATE WEATHER ROUNDUP
NATIONAL WEATHER SERVICE MEMPHIS TN
400 PM CDT FRI SEP 19 2014

TNZ002-004-019-021-049-052-054-088>092-192200-
WEST TENNESSEE

CITY           SKY/WX    TMP DP  RH WIND       PRES   REMARKS
MEMPHIS INTL   MOSUNNY   86  66  51 S10       29.99F
NWS MEMPHIS      N/A     83 N/A N/A MISG        N/A
JACKSON        MOSUNNY   82  66  58 CALM      30.00F
DYERSBURG      MOSUNNY   82  59  44 S6        30.00F
UNION CITY     MOSUNNY   82  63  51 S5        29.99F
PARIS          MOSUNNY   81  63  54 SE5       30.02F
SAVANNAH       SUNNY     84  66  54 S3        30.00S
$$

TNZ008-025-027-028-033-062-065-066-192200-
NORTH MIDDLE TENNESSEE

CITY           SKY/WX    TMP DP  RH WIND       PRES   REMARKS
NASHVILLE      MOSUNNY   84  61  45 S5        30.02F
CLARKSVILLE    MOSUNNY   84  60  44 MISG      30.02S
COOKEVILLE     SUNNY     82  64  54 CALM      30.05S
CROSSVILLE     MOSUNNY   77  60  55 S3        30.10F
$$

TNZ061-075-076-078-094-096-097-192200-
SOUTH MIDDLE TENNESSEE

CITY           SKY/WX    TMP DP  RH WIND       PRES   REMARKS
TULLAHOMA      MOSUNNY   82  63  51 S3        30.05S
WINCHESTER     PTSUNNY   86  64  48 S8        30.04S
SHELBYVILLE    SUNNY     84  66  54 S5        30.03S
$$

TNZ017-018-042-046-047-192200-
NORTHEAST TENNESSEE

CITY           SKY/WX    TMP DP  RH WIND       PRES   REMARKS
TRI CITIES     MOSUNNY   80  58  46 E13       30.11S
ELIZABETHTON   PTCLDY    73  59  60 E14       30.15R
$$

TNZ012-013-036-069-073-074-192200-
CENTRAL EAST TENNESSEE

CITY           SKY/WX    TMP DP  RH WIND       PRES   REMARKS
KNOXVILLE      MOSUNNY   83  59  44 NE5       30.04F
OAK RIDGE      PTSUNNY   85  60  42 CALM      30.07F
GATLINBURG     CLEAR     82  59  44 E3        30.05F
$$

TNZ083-085-099-192200-
SOUTHEAST TENNESSEE

CITY           SKY/WX    TMP DP  RH WIND       PRES   REMARKS
CHATTANOOGA    PTSUNNY   85  63  47 VRB7      30.04S
$$

SKY/WX REPORTED AS FAIR MEANS FEW OR NO CLOUDS BELOW
12 THOUSAND FEET.



USA.gov is the U.S. government's official web portal to all federal, state and local government web resources and services.